Location: Pinawa
(50.1500°N, 95.8830°W)
Time: 15:37:57
(UTC-05:00)

Daily predictions for brighter satellites

Satellite Brightness Start Highest point End
(mag) Time Altitude Azimuth Time Altitude Azimuth Time Altitude Azimuth
Terra 2.9 22:15:13 10° SE 22:19:24 32° ENE 22:23:35 10° N
Cosmos 1437 4.4 22:16:48 10° SW 22:19:54 38° WNW 22:23:01 10° N
Cosmos 1980 3.8 22:14:54 10° NNW 22:20:36 83° ENE 22:26:15 10° SSE
H-2A R/B 2.9 22:16:14 10° SE 22:21:14 40° ENE 22:26:19 10° N
Cosmos 1898 Rocket 3.5 22:16:39 10° S 22:21:47 66° ESE 22:26:59 10° NNE
Tiangong 1 2.6 22:20:13 10° SW 22:22:30 19° S 22:24:48 10° ESE
Cosmos 1745 Rocket 4.3 22:19:10 10° SSE 22:25:06 50° E 22:31:00 10° NNE
NOSS 3-1 (A) 3.5 22:21:52 10° SSW 22:27:48 65° SE 22:34:27 10° NE
Cosmos 2237 Rocket 2.3 22:26:33 10° NNW 22:32:19 88° WSW 22:38:01 10° SSE
SPOT 1/Viking Rocket 3.7 22:28:40 10° SSE 22:33:49 82° WSW 22:39:02 10° NNW
Cosmos 2219 3.7 22:28:13 10° SW 22:33:56 68° WNW 22:39:42 10° NNE
Cosmos 1869 3.9 22:31:25 10° N 22:35:21 45° ENE 22:39:13 10° SSE
Cosmos 1271 Rocket 3.0 22:32:11 10° NNW 22:36:00 67° W 22:39:53 10° S
Cosmos 2150 Rocket 4.2 22:32:43 10° SSW 22:38:11 88° ESE 22:43:42 10° NNE
Sich 1 3.2 22:34:42 10° S 22:39:07 83° W 22:43:31 10° N
Cosmos 1626 2.9 22:37:04 10° SSE 22:40:31 36° E 22:44:00 10° NNE
Cosmos 1862 Rocket 3.7 22:36:26 10° N 22:40:47 62° ENE 22:45:03 10° SSE
Cosmos 2082 4.0 22:37:58 10° S 22:43:24 46° ESE 22:48:51 10° NE
YAOGAN 6 3.5 22:40:40 10° S 22:44:09 46° W 22:47:37 10° NNW
ERBS 2.9 22:41:29 10° SSW 22:44:44 37° SE 22:47:59 10° ENE
Iridium 2 3.7 22:41:21 10° S 22:45:10 67° E 22:49:01 10° N
CARTOSAT-1 4.0 22:42:07 10° SE 22:46:13 51° ENE 22:50:25 10° N
Cosmos 1633 Rocket 3.3 22:42:39 10° SSW 22:47:02 74° W 22:51:25 10° N
Cosmos 2242 Rocket 4.3 22:44:40 10° NNW 22:49:03 54° W 22:53:27 10° S
ATLAS 2AS CENTAUR R/B 3.3 22:43:06 10° S 22:50:15 47° ESE 22:57:52 10° NE
NOAA 11 4.4 22:45:51 10° S 22:51:17 75° WSW 22:56:47 10° NNW
CZ-4 R/B 3.9 22:46:56 10° NNE 22:51:53 68° ESE 22:56:41 10° S
ATLAS 3B R/B 2.8 22:47:15 10° NW 22:54:26 89° SW 23:00:41 12° SE
IGS 5A 3.8 22:50:56 12° SE 22:54:39 53° ENE 22:58:44 10° N
CZ-4C R/B 3.0 22:52:05 11° SSE 22:55:21 88° ENE 22:58:53 10° NNW
Cosmos 1703 3.3 22:51:42 10° SSW 22:55:36 82° W 22:59:33 10° N
SL-14 R/B 4.4 22:53:28 10° SSW 22:57:18 46° WNW 23:01:14 10° N
USA 245 4.1 22:59:00 10° SSW 23:00:55 22° W 23:02:46 10° NW
SAR-Lupe-2 3.9 22:58:30 14° SE 23:01:24 53° ENE 23:04:55 10° N
Cosmos 2181 Rocket 4.4 22:55:45 10° N 23:02:00 53° ENE 23:07:35 13° SSE
Cosmos 220 Rocket 4.4 23:04:07 10° SSW 23:08:31 69° WNW 23:13:00 10° NNE
CZ-4C R/B 3.5 23:05:17 10° NW 23:11:44 48° NE 23:18:57 10° ESE
USA 238 DEB 4.0 23:04:41 10° NW 23:11:46 69° NE 23:18:30 11° SE
USA 238 4.0 23:04:48 10° NW 23:11:51 68° NE 23:18:37 11° SE
NOSS 3-1 (C) 4.1 23:06:48 10° WSW 23:12:50 65° NW 23:19:41 10° NE
Aureole 2 Rocket 3.7 23:10:23 10° N 23:13:12 28° ENE 23:15:36 14° ESE
FALCON 9 R/B 4.4 22:49:59 10° WSW 23:14:06 38° SSW 23:20:47 14° SE
Cosmos 2227 Rocket 2.2 23:09:28 10° SSW 23:15:07 80° ESE 23:20:50 10° NNE
DMSP B5D2-2 4.3 23:10:33 10° NNE 23:15:42 54° E 23:20:21 12° S
Cosmos 1937 Rocket 3.9 23:10:35 10° SW 23:15:47 66° WNW 23:20:58 10° NNE
Cosmos 990 Rocket 4.1 23:16:21 10° SSW 23:21:29 78° WNW 23:26:41 10° NNE
Okean 1-7 3.6 23:18:38 10° N 23:22:45 44° ENE 23:25:40 18° SE
CZ-4B R/B 4.4 23:20:45 10° N 23:25:53 51° WNW 23:30:53 10° SW
Cosmos 1455 3.3 23:23:46 10° NNW 23:27:21 39° W 23:30:51 10° SSW
SL-16 R/B 2.3 23:22:23 10° NNW 23:28:05 74° WSW 23:32:32 17° SSE
ARGOS 4.4 23:27:12 10° SSW 23:32:05 34° W 23:37:00 10° NNW
Cosmos 2333 Rocket 3.6 23:27:37 10° NW 23:32:33 30° WSW 23:37:29 10° SSW
Cosmos 1346 4.4 23:30:34 10° SW 23:33:26 38° WNW 23:36:18 10° N
ALOS 2 4.3 23:34:30 11° ESE 23:37:44 23° ENE 23:41:12 10° N
Cosmos 2219 Rocket 4.1 23:35:26 10° NW 23:39:27 21° W 23:43:28 10° SSW
Cosmos 2297 Rocket 2.2 23:35:54 10° SSW 23:41:34 88° ESE 23:47:17 10° NNE
Cosmos 2251 Rocket 3.9 23:37:04 10° NNW 23:42:21 59° ENE 23:46:13 18° SE
Cosmos 1703 Rocket 3.6 23:37:59 10° NNW 23:42:22 78° W 23:45:29 19° S
Lacrosse 4 Rocket 2.3 23:38:09 10° NW 23:42:22 44° WSW 23:45:16 19° S
USA 234 4.3 23:37:47 10° ENE 23:44:01 49° N 23:50:17 10° WNW
SeaSat 1 3.1 23:40:22 14° ESE 23:44:25 48° NE 23:49:11 10° NNW
Cosmos 1933 3.7 23:42:42 10° NNW 23:46:44 61° W 23:49:35 19° S
Cosmos 44 Rocket 3.8 23:43:24 15° S 23:47:21 43° ESE 23:52:18 10° NE
Cosmos 1943 4.3 23:42:46 10° NNW 23:48:05 38° NE 23:53:11 11° ESE
NOSS 2-3 (C) 4.3 23:47:39 14° SSW 23:51:49 48° ESE 23:57:27 10° NE
Cosmos 1782 4.5 23:48:39 10° NNE 23:51:52 23° ENE 23:54:10 15° ESE
